Weather Roundup
Issued by NWS Chicago, IL

Home | Current Version | Previous Version | Text Only | Print | Product List | Glossary Off
Versions: 1 2 3 4 5 6 7 8 9 10 11 12 13 14 15 16 17 18 19 20 21 22 23 24 25 26 27 28 29 30 31 32 33 34 35 36 37 38 39 40 41 42 43 44 45 46 47 48 49 50

000
NZUS59 KLOT 201303
HRRLOT

CHICAGO AREA WEATHER ROUNDUP
NATIONAL WEATHER SERVICE CHICAGO/ROMEOVILLE IL
800 AM CDT SUN AUG 20 2017

NOTE: "FAIR" INDICATES FEW OR NO CLOUDS BELOW 12,000 FEET WITH NO
SIGNIFICANT WEATHER AND/OR OBSTRUCTIONS TO VISIBILITY.

* THESE STATIONS ARE NOT UNDER NWS QUALITY CONTROL. THEY ALSO MAY NOT
  REPORT WEATHER SUCH AS PRECIPITATION OR FOG.

ILZ005-006-012>014-019>023-201400-
NORTHEAST ILLINOIS

CITY           SKY/WX    TMP DP  RH WIND       PRES   REMARKS
OHARE          PTSUNNY   71  61  70 S3        30.03S
MIDWAY         PTSUNNY   71  61  70 S5        30.03S
AURORA         CLOUDY    67  64  90 CALM      30.03S
LANSING*       CLOUDY    68  60  75 SE5       30.04S
JOLIET*        CLOUDY    69  64  84 SE3       30.03S
WAUKEGAN       CLOUDY    69  62  78 S5        30.02F
DUPAGE AIRPORT CLOUDY    68  63  84 SE3       30.02F HAZE
WHEELING       MOSUNNY   68  63  84 SE5       30.04S
MORRIS*        CLOUDY    66  63  90 CALM      30.02R FOG
NORTHERLY ISL    N/A     72  60  66 SE3         N/A
$$

WIZ051-052-058>065-066-070>072-201400-
SOUTHEAST WISCONSIN

CITY           SKY/WX    TMP DP  RH WIND       PRES   REMARKS
MILWAUKEE      PTSUNNY   69  60  73 S6        30.02F
KENOSHA*       CLOUDY    68  61  78 S6        30.03F
RACINE*        SUNNY     70  61  73 S5        30.04F
WAUKESHA       SUNNY     63  61  94 CALM      30.03F
$$

INZ001>003-010>013-019-020-201400-
NORTHWEST INDIANA

CITY           SKY/WX    TMP DP  RH WIND       PRES   REMARKS
GARY*          MOSUNNY   70  61  73 VRB5      30.05S
MICHIGAN CITY* NOT AVBL
RENSSELAER*    NOT AVBL
VALPARAISO     SUNNY     67  63  87 E5        30.06S
$$

LMZ740>746-201400-
SOUTHERN LAKE MICHIGAN

STATION/POSITION TIME  SKY/WX   TEMP WIND        PRES    VSBY
                                AIR  DIR/SP/G
                 (UTC)          (F)  (DEG/KT/KT) (MB)    (MI)
HARRISON CRIB    1240            72  180/  9/  9   N/A
BURNHAM HARBOR   NOT AVBL
CALUMET HARBOR   1230            70  170/  4/  5 1016.6S
BURNS HARBOR     1240            72  160/  8/ 13 1017.6S
MICHIGAN CITY    1240            68  130/  8/  9   N/A
$$

ABBREVIATIONS USED IN REMARKS
   TC - TEMPERATURE IN CELSIUS
  WCI - WIND CHILL INDEX
   HX - HEAT INDEX
  VSB - VISIBILITY
$$




USA.gov is the U.S. government's official web portal to all federal, state and local government web resources and services.